Regional Weather Roundup
Issued by NWS Boston, MA

Home | Current Version | Previous Version | Text Only | Print | Product List | Glossary On
Versions: 1 2 3 4 5 6 7 8 9 10 11 12 13 14 15 16 17 18 19 20 21 22 23 24 25 26 27
000
ASUS41 KBOX 250710
RWRBOX

REGIONAL WEATHER ROUNDUP
NATIONAL WEATHER SERVICE TAUNTON MA
300 AM EDT THU MAY 25 2017

NOTE:  "FAIR" INDICATES FEW OR NO CLOUDS BELOW 12,000 FEET WITH NO
SIGNIFICANT WEATHER AND/OR OBSTRUCTIONS TO VISIBILITY.

MAZALL-250800-
EASTERN MASSACHUSETTS

CITY           SKY/WX    TMP DP  RH WIND       PRES   REMARKS
BOSTON         CLOUDY    54  51  90 CALM      29.87F
BEVERLY        CLOUDY    49  47  93 CALM      29.87F
LAWRENCE       CLOUDY    52  49  89 NE3       29.89F
BEDFORD        CLOUDY    49  46  90 NE3       29.86F
BLUE HILL        N/A     52  48  86 E14       29.84F
NORWOOD        MOCLDY    48  47  96 CALM      29.86S FOG
MARSHFIELD     CLOUDY    55  52  88 NE6       29.86S
PLYMOUTH       CLOUDY    53  50  89 NE7       29.85F
TAUNTON        PTCLDY    49  47  93 CALM      29.84F
NEW BEDFORD    PTCLDY   N/A N/A N/A MISG      29.83F
$$

MAZALL-250800-
CAPE COD AND THE ISLANDS

CITY           SKY/WX    TMP DP  RH WIND       PRES   REMARKS
FALMOUTH         N/A    N/A N/A N/A MISG        N/A
HYANNIS        CLOUDY    52  49  89 NE6       29.83F
CHATHAM        CLOUDY    53  51  93 NE10      29.86F
PROVINCETOWN   CLOUDY    52  50  93 E8        29.88S
NANTUCKET      MOCLDY    53  50  89 NE13      29.83S
MARTHAS VNYRD  CLOUDY    57  52  83 E13       29.82F
$$

MAZALL-250800-
CENTRAL AND WESTERN MASSACHUSETTS

CITY           SKY/WX    TMP DP  RH WIND       PRES   REMARKS
WORCESTER      MOCLDY    51  46  83 NE3       29.85F
FITCHBURG      CLOUDY    52  49  89 CALM      29.87F
ORANGE         CLOUDY    50  49  96 CALM      29.85F
SPRINGFIELD    CLOUDY    53  48  83 CALM      29.82F
WESTFIELD      MOCLDY    53  50  89 N3        29.83F
NORTH ADAMS    CLOUDY    57  47  69 E17G24    29.81F
PITTSFIELD     CLOUDY    54  45  71 VRB6      29.81F
$$

RIZALL-250800-
RHODE ISLAND

CITY           SKY/WX    TMP DP  RH WIND       PRES   REMARKS
PROVIDENCE     CLOUDY    54  51  90 NE8       29.84F
NEWPORT        CLOUDY    53  50  89 NE7       29.83S
BLOCK ISLAND   CLOUDY    55  51  86 E10       29.82S
SMITHFIELD     CLOUDY    51  49  92 NE5       29.85F
WESTERLY       CLOUDY    55  51  86 NE5       29.83R
$$

CTZALL-250800-
CONNECTICUT

CITY           SKY/WX    TMP DP  RH WIND       PRES   REMARKS
BRADLEY INTL   CLOUDY    53  50  89 NE5       29.83F
HARTFORD       CLOUDY    57  49  74 CALM      29.83S
BRIDGEPORT     CLOUDY    59  51  75 NE14      29.79F
DANBURY        CLOUDY    53  50  89 NE7       29.80F
GROTON         CLOUDY    56  50  80 NE9       29.81F
NEW HAVEN      CLOUDY    56  50  80 NE7       29.80F
CHESTER        FAIR      54  52  94 E5        29.82F
MERIDEN        CLOUDY    56  50  80 E3        29.82F
WILLIMANTIC    CLOUDY    55  51  86 CALM      29.83F
OXFORD           N/A     54  46  76 E5        29.82F
$$

MEZ002-015-021-024-NHZ003-005-008-011-012-014-VTZ005-008-250800-
NORTHERN NEW ENGLAND

CITY           SKY/WX    TMP DP  RH WIND       PRES   REMARKS
PORTLAND ME    CLOUDY    48  47  96 CALM      29.89F
BANGOR ME      CLOUDY    47  46  97 CALM      29.92S
CONCORD NH     CLOUDY    50  48  93 CALM      29.88F
MANCHESTER NH  CLOUDY    53  47  79 CALM      29.86F
NASHUA NH      CLOUDY    50  48  93 CALM      29.88F
PORTSMOUTH NH  CLOUDY    49  48  95 CALM      29.87F
JAFFREY NH     CLOUDY    48  48 100 CALM      29.87F
KEENE NH       CLOUDY    50  49  96 CALM      29.86F
BURLINGTON VT  CLOUDY    58  54  86 CALM      29.81F
MT. WASHINGTON FOG       39  39 100 SE23        N/A  VSB 0   WCI  29
$$

NYZ052-076-250800-
EASTERN NEW YORK

CITY           SKY/WX    TMP DP  RH WIND       PRES   REMARKS
ALBANY         CLOUDY    60  48  64 SE6       29.80F
NEW YORK CITY  CLOUDY    58  51  78 E15       29.77F
$$

ANZALL-250800-
MARINE OBSERVATIONS

STATION/POSITION TIME  TEMP    WIND        PRES    VSBY  WAVE
                       AIR SEA DIR/SP/G                  HT/PER
                 (UTC) (F)     (DEG/KT/KT) (MB)    (MI)  (FT/S)
BOSTON BUOY      0550   54 54   50/  6/  6 1011.1          2/ 7
BUZZARDS BAY     0600   55      50/ 12/ 13 1010.5F
NANTUCKET SOUND  0650      54              1009.8F         1/15
MASS BAY-STELLWA 0604   54 55   30/  8/  8 1011.1F         2/ 8
ISLE OF SHOALS   0600   54     350/  2/  2 1012.0F
S OF BLOCK IS    0655      53                N/A           5/ 8
$$

......................KEY.........................
  SKY/WX - SKY CONDITION/PRESENT WEATHER
  TMP    - TEMPERATURE IN FAHRENHEIT
  DWPT   - DEWPOINT IN FAHRENHEIT
  RH     - RELATIVE HUMIDITY IN PERCENT
  WIND   - DIRECTION AND SPEED IN MPH
  PRES   - MEAN SEA LEVEL PRESSURE IN INCHES OF HG
  WCI    - WIND CHILL INDEX
  VSB    - VISIBILITY IN MILES
  HX     - HEAT INDEX
  TC     - TEMPERATURE IN CELSIUS
  VRB    - VARIABLE WIND DIRECTION
  N/A    - NOT AVAILABLE




USA.gov is the U.S. government's official web portal to all federal, state and local government web resources and services.